![]() |
EMODnet Physics ERDDAP
Easier access to scientific data |
log in|
Brought to you by EMODnet Physics |
| Dataset Title: | NDBC - Collection of dew point temperature (DEWT) TimeSeries - IN SITU MultiPointTimeSeriesObservation
|
| Institution: | NDBC (Dataset ID: TS_DEWT_NDBC) |
| Information: | Summary
| License
| FGDC
| ISO 19115
| Metadata
| Background
| Subset
| Data Access Form
| Make a graph
|
| Name | Last modified | Size | Description | |
|---|---|---|---|---|
| Parent Directory | - | - | ||
| FMRF1_TS_DEWT_012006.nc | 27-Oct-2024 09:51 | 428695 | ||
| FMRF1_TS_DEWT_012008.nc | 27-Oct-2024 09:51 | 429040 | ||
| FMRF1_TS_DEWT_012009.nc | 27-Oct-2024 09:52 | 428692 | ||
| FMRF1_TS_DEWT_012010.nc | 27-Oct-2024 09:52 | 428694 | ||
| FMRF1_TS_DEWT_012011.nc | 27-Oct-2024 09:52 | 428692 | ||
| FMRF1_TS_DEWT_012012.nc | 27-Oct-2024 09:52 | 428695 | ||
| FMRF1_TS_DEWT_012013.nc | 27-Oct-2024 09:52 | 428692 | ||
| FMRF1_TS_DEWT_012014.nc | 27-Oct-2024 09:52 | 428691 | ||
| FMRF1_TS_DEWT_012015.nc | 27-Oct-2024 09:52 | 429214 | ||
| FMRF1_TS_DEWT_012016.nc | 27-Oct-2024 09:52 | 428887 | ||
| FMRF1_TS_DEWT_012017.nc | 27-Oct-2024 09:52 | 428888 | ||
| FMRF1_TS_DEWT_012018.nc | 27-Oct-2024 09:52 | 428870 | ||
| FMRF1_TS_DEWT_012019.nc | 27-Oct-2024 09:52 | 429234 | ||
| FMRF1_TS_DEWT_012020.nc | 27-Oct-2024 09:52 | 428883 | ||
| FMRF1_TS_DEWT_012021.nc | 27-Oct-2024 09:52 | 424914 | ||
| FMRF1_TS_DEWT_012022.nc | 27-Oct-2024 09:52 | 428886 | ||
| FMRF1_TS_DEWT_012023.nc | 27-Oct-2024 09:53 | 429233 | ||
| FMRF1_TS_DEWT_012024.nc | 27-Oct-2024 09:53 | 428883 | ||
| FMRF1_TS_DEWT_022005.nc | 27-Oct-2024 09:53 | 419590 | ||
| FMRF1_TS_DEWT_022006.nc | 27-Oct-2024 09:53 | 429235 | ||
| FMRF1_TS_DEWT_022009.nc | 27-Oct-2024 09:53 | 448380 | ||
| FMRF1_TS_DEWT_022010.nc | 27-Oct-2024 09:53 | 917173 | ||
| FMRF1_TS_DEWT_022011.nc | 27-Oct-2024 09:53 | 1107035 | ||
| FMRF1_TS_DEWT_022012.nc | 27-Oct-2024 09:53 | 1027555 | ||
| FMRF1_TS_DEWT_022013.nc | 27-Oct-2024 09:53 | 1025260 | ||
| FMRF1_TS_DEWT_022014.nc | 27-Oct-2024 09:53 | 435301 | ||
| FMRF1_TS_DEWT_022015.nc | 27-Oct-2024 09:53 | 3240378 | ||
| FMRF1_TS_DEWT_022016.nc | 27-Oct-2024 09:53 | 4973286 | ||
| FMRF1_TS_DEWT_022017.nc | 27-Oct-2024 09:54 | 429232 | ||
| FMRF1_TS_DEWT_022018.nc | 27-Oct-2024 09:54 | 429684 | ||
| FMRF1_TS_DEWT_022019.nc | 27-Oct-2024 09:54 | 429663 | ||
| FMRF1_TS_DEWT_022020.nc | 27-Oct-2024 09:54 | 429683 | ||
| FMRF1_TS_DEWT_022021.nc | 27-Oct-2024 09:54 | 429671 | ||
| FMRF1_TS_DEWT_022022.nc | 27-Oct-2024 09:54 | 422397 | ||
| FMRF1_TS_DEWT_022023.nc | 27-Oct-2024 09:54 | 425155 | ||
| FMRF1_TS_DEWT_032005.nc | 27-Oct-2024 09:54 | 441628 | ||
| FMRF1_TS_DEWT_032006.nc | 27-Oct-2024 09:54 | 450715 | ||
| FMRF1_TS_DEWT_032008.nc | 27-Oct-2024 09:54 | 451309 | ||
| FMRF1_TS_DEWT_032009.nc | 27-Oct-2024 09:54 | 449583 | ||
| FMRF1_TS_DEWT_032010.nc | 27-Oct-2024 09:54 | 419722 | ||
| FMRF1_TS_DEWT_032011.nc | 27-Oct-2024 09:54 | 429693 | ||
| FMRF1_TS_DEWT_032012.nc | 27-Oct-2024 09:55 | 429695 | ||
| FMRF1_TS_DEWT_032013.nc | 27-Oct-2024 09:55 | 429701 | ||
| FMRF1_TS_DEWT_032014.nc | 27-Oct-2024 09:55 | 427645 | ||
| FMRF1_TS_DEWT_032015.nc | 27-Oct-2024 09:55 | 429689 | ||
| FMRF1_TS_DEWT_032016.nc | 27-Oct-2024 09:55 | 429689 | ||
| FMRF1_TS_DEWT_032017.nc | 27-Oct-2024 09:55 | 429689 | ||
| FMRF1_TS_DEWT_032018.nc | 27-Oct-2024 09:55 | 429695 | ||
| FMRF1_TS_DEWT_032019.nc | 27-Oct-2024 09:55 | 429909 | ||
| FMRF1_TS_DEWT_032020.nc | 27-Oct-2024 09:55 | 429917 | ||
| FMRF1_TS_DEWT_032021.nc | 27-Oct-2024 09:55 | 429910 | ||
| FMRF1_TS_DEWT_032022.nc | 27-Oct-2024 09:55 | 429897 | ||
| FMRF1_TS_DEWT_032023.nc | 27-Oct-2024 09:55 | 429914 | ||
| FMRF1_TS_DEWT_042005.nc | 27-Oct-2024 09:55 | 428534 | ||
| FMRF1_TS_DEWT_042006.nc | 27-Oct-2024 09:55 | 429910 | ||
| FMRF1_TS_DEWT_042008.nc | 27-Oct-2024 09:55 | 429918 | ||
| FMRF1_TS_DEWT_042009.nc | 27-Oct-2024 09:55 | 429906 | ||
| FMRF1_TS_DEWT_042010.nc | 27-Oct-2024 09:55 | 438869 | ||
| FMRF1_TS_DEWT_042011.nc | 27-Oct-2024 09:55 | 429909 | ||
| FMRF1_TS_DEWT_042012.nc | 27-Oct-2024 09:55 | 451145 | ||
| FMRF1_TS_DEWT_042013.nc | 27-Oct-2024 09:55 | 450315 | ||
| FMRF1_TS_DEWT_042014.nc | 27-Oct-2024 09:56 | 1142458 | ||
| FMRF1_TS_DEWT_042015.nc | 27-Oct-2024 09:56 | 1260120 | ||
| FMRF1_TS_DEWT_042016.nc | 27-Oct-2024 09:56 | 1007739 | ||
| FMRF1_TS_DEWT_042017.nc | 27-Oct-2024 09:56 | 1265164 | ||
| FMRF1_TS_DEWT_042018.nc | 27-Oct-2024 09:56 | 4144354 | ||
| FMRF1_TS_DEWT_042019.nc | 27-Oct-2024 09:56 | 3826314 | ||
| FMRF1_TS_DEWT_042020.nc | 27-Oct-2024 09:56 | 429342 | ||
| FMRF1_TS_DEWT_042022.nc | 27-Oct-2024 09:56 | 429356 | ||
| FMRF1_TS_DEWT_042023.nc | 27-Oct-2024 09:56 | 429351 | ||
| FMRF1_TS_DEWT_052005.nc | 27-Oct-2024 09:56 | 429351 | ||
| FMRF1_TS_DEWT_052007.nc | 27-Oct-2024 09:56 | 429363 | ||
| FMRF1_TS_DEWT_052008.nc | 27-Oct-2024 09:56 | 429371 | ||
| FMRF1_TS_DEWT_052009.nc | 27-Oct-2024 09:56 | 448197 | ||
| FMRF1_TS_DEWT_052010.nc | 27-Oct-2024 09:56 | 432623 | ||
| FMRF1_TS_DEWT_052011.nc | 27-Oct-2024 09:56 | 449125 | ||
| FMRF1_TS_DEWT_052012.nc | 27-Oct-2024 09:56 | 450020 | ||
| FMRF1_TS_DEWT_052013.nc | 27-Oct-2024 09:56 | 429369 | ||
| FMRF1_TS_DEWT_052014.nc | 27-Oct-2024 09:57 | 429375 | ||
| FMRF1_TS_DEWT_052015.nc | 27-Oct-2024 09:57 | 429363 | ||
| FMRF1_TS_DEWT_052016.nc | 27-Oct-2024 09:57 | 429365 | ||
| FMRF1_TS_DEWT_052017.nc | 27-Oct-2024 09:57 | 429369 | ||
| FMRF1_TS_DEWT_052018.nc | 27-Oct-2024 09:57 | 429368 | ||
| FMRF1_TS_DEWT_052019.nc | 27-Oct-2024 09:57 | 429367 | ||
| FMRF1_TS_DEWT_052020.nc | 27-Oct-2024 09:57 | 429361 | ||
| FMRF1_TS_DEWT_052021.nc | 27-Oct-2024 09:57 | 429571 | ||
| FMRF1_TS_DEWT_052022.nc | 27-Oct-2024 09:57 | 429571 | ||
| FMRF1_TS_DEWT_052023.nc | 27-Oct-2024 09:57 | 429575 | ||
| FMRF1_TS_DEWT_062005.nc | 27-Oct-2024 09:57 | 429571 | ||
| FMRF1_TS_DEWT_062007.nc | 27-Oct-2024 09:57 | 429575 | ||
| FMRF1_TS_DEWT_062008.nc | 27-Oct-2024 09:57 | 419400 | ||
| FMRF1_TS_DEWT_062009.nc | 27-Oct-2024 09:57 | 419060 | ||
| FMRF1_TS_DEWT_062011.nc | 27-Oct-2024 09:58 | 429571 | ||
| FMRF1_TS_DEWT_062012.nc | 27-Oct-2024 09:58 | 592020 | ||
| FMRF1_TS_DEWT_062013.nc | 27-Oct-2024 09:58 | 429572 | ||
| FMRF1_TS_DEWT_062014.nc | 27-Oct-2024 09:58 | 448215 | ||
| FMRF1_TS_DEWT_062015.nc | 27-Oct-2024 09:58 | 429574 | ||
| FMRF1_TS_DEWT_062016.nc | 27-Oct-2024 09:58 | 449562 | ||
| FMRF1_TS_DEWT_062017.nc | 27-Oct-2024 09:58 | 450091 | ||
| FMRF1_TS_DEWT_062018.nc | 27-Oct-2024 09:58 | 994871 | ||
| FMRF1_TS_DEWT_062019.nc | 27-Oct-2024 09:58 | 1109240 | ||
| FMRF1_TS_DEWT_062020.nc | 27-Oct-2024 09:58 | 1112216 | ||
| FMRF1_TS_DEWT_062021.nc | 27-Oct-2024 09:58 | 1110653 | ||
| FMRF1_TS_DEWT_062022.nc | 27-Oct-2024 09:58 | 4849489 | ||
| FMRF1_TS_DEWT_062023.nc | 27-Oct-2024 09:58 | 429680 | ||
| FMRF1_TS_DEWT_072005.nc | 27-Oct-2024 09:58 | 429681 | ||
| FMRF1_TS_DEWT_072007.nc | 27-Oct-2024 09:58 | 429662 | ||
| FMRF1_TS_DEWT_072008.nc | 27-Oct-2024 09:58 | 429668 | ||
| FMRF1_TS_DEWT_072009.nc | 27-Oct-2024 09:59 | 429338 | ||
| FMRF1_TS_DEWT_072010.nc | 27-Oct-2024 09:59 | 429695 | ||
| FMRF1_TS_DEWT_072011.nc | 27-Oct-2024 09:59 | 429689 | ||
| FMRF1_TS_DEWT_072013.nc | 27-Oct-2024 09:59 | 432353 | ||
| FMRF1_TS_DEWT_072014.nc | 27-Oct-2024 09:59 | 450874 | ||
| FMRF1_TS_DEWT_072015.nc | 27-Oct-2024 09:59 | 450612 | ||
| FMRF1_TS_DEWT_072016.nc | 27-Oct-2024 09:59 | 422056 | ||
| FMRF1_TS_DEWT_072017.nc | 27-Oct-2024 09:59 | 429675 | ||
| FMRF1_TS_DEWT_072018.nc | 27-Oct-2024 09:59 | 429689 | ||
| FMRF1_TS_DEWT_072019.nc | 27-Oct-2024 09:59 | 425412 | ||
| FMRF1_TS_DEWT_072020.nc | 27-Oct-2024 09:59 | 429692 | ||
| FMRF1_TS_DEWT_072021.nc | 27-Oct-2024 09:59 | 429695 | ||
| FMRF1_TS_DEWT_072022.nc | 27-Oct-2024 09:59 | 429688 | ||
| FMRF1_TS_DEWT_072023.nc | 27-Oct-2024 09:59 | 429696 | ||
| FMRF1_TS_DEWT_082005.nc | 27-Oct-2024 10:00 | 429696 | ||
| FMRF1_TS_DEWT_082007.nc | 27-Oct-2024 10:00 | 429914 | ||
| FMRF1_TS_DEWT_082008.nc | 27-Oct-2024 10:00 | 429912 | ||
| FMRF1_TS_DEWT_082009.nc | 27-Oct-2024 10:00 | 429912 | ||
| FMRF1_TS_DEWT_082011.nc | 27-Oct-2024 10:00 | 429896 | ||
| FMRF1_TS_DEWT_082012.nc | 27-Oct-2024 10:00 | 429912 | ||
| FMRF1_TS_DEWT_082013.nc | 27-Oct-2024 10:00 | 429909 | ||
| FMRF1_TS_DEWT_082014.nc | 27-Oct-2024 10:00 | 429912 | ||
| FMRF1_TS_DEWT_082015.nc | 27-Oct-2024 10:00 | 598257 | ||
| FMRF1_TS_DEWT_082016.nc | 27-Oct-2024 10:00 | 429909 | ||
| FMRF1_TS_DEWT_082017.nc | 27-Oct-2024 10:00 | 439173 | ||
| FMRF1_TS_DEWT_082018.nc | 27-Oct-2024 10:00 | 429911 | ||
| FMRF1_TS_DEWT_082019.nc | 27-Oct-2024 10:00 | 448502 | ||
| FMRF1_TS_DEWT_082020.nc | 27-Oct-2024 10:00 | 1002333 | ||
| FMRF1_TS_DEWT_082021.nc | 27-Oct-2024 10:00 | 1143355 | ||
| FMRF1_TS_DEWT_082022.nc | 27-Oct-2024 10:01 | 1261888 | ||
| FMRF1_TS_DEWT_082023.nc | 27-Oct-2024 10:01 | 1259579 | ||
| FMRF1_TS_DEWT_092005.nc | 27-Oct-2024 10:01 | 1264058 | ||
| FMRF1_TS_DEWT_092007.nc | 27-Oct-2024 10:01 | 4717307 | ||
| FMRF1_TS_DEWT_092008.nc | 27-Oct-2024 10:01 | 5436404 | ||
| FMRF1_TS_DEWT_092009.nc | 27-Oct-2024 10:01 | 429334 | ||
| FMRF1_TS_DEWT_092012.nc | 27-Oct-2024 10:01 | 429349 | ||
| FMRF1_TS_DEWT_092013.nc | 27-Oct-2024 10:01 | 429346 | ||
| FMRF1_TS_DEWT_092014.nc | 27-Oct-2024 10:01 | 429350 | ||
| FMRF1_TS_DEWT_092015.nc | 27-Oct-2024 10:01 | 429354 | ||
| FMRF1_TS_DEWT_092016.nc | 27-Oct-2024 10:01 | 429366 | ||
| FMRF1_TS_DEWT_092017.nc | 27-Oct-2024 10:01 | 429368 | ||
| FMRF1_TS_DEWT_092018.nc | 27-Oct-2024 10:01 | 447747 | ||
| FMRF1_TS_DEWT_092019.nc | 27-Oct-2024 10:01 | 425901 | ||
| FMRF1_TS_DEWT_092020.nc | 27-Oct-2024 10:01 | 449924 | ||
| FMRF1_TS_DEWT_092021.nc | 27-Oct-2024 10:01 | 448225 | ||
| FMRF1_TS_DEWT_092022.nc | 27-Oct-2024 10:01 | 429365 | ||
| FMRF1_TS_DEWT_092023.nc | 27-Oct-2024 10:01 | 429358 | ||
| FMRF1_TS_DEWT_102005.nc | 27-Oct-2024 10:01 | 422453 | ||
| FMRF1_TS_DEWT_102007.nc | 27-Oct-2024 10:01 | 429376 | ||
| FMRF1_TS_DEWT_102008.nc | 27-Oct-2024 10:02 | 429364 | ||
| FMRF1_TS_DEWT_102009.nc | 27-Oct-2024 10:02 | 427756 | ||
| FMRF1_TS_DEWT_102010.nc | 27-Oct-2024 10:02 | 429372 | ||
| FMRF1_TS_DEWT_102011.nc | 27-Oct-2024 10:02 | 429359 | ||
| FMRF1_TS_DEWT_102012.nc | 27-Oct-2024 10:02 | 429367 | ||
| FMRF1_TS_DEWT_102013.nc | 27-Oct-2024 10:02 | 429569 | ||
| FMRF1_TS_DEWT_102014.nc | 27-Oct-2024 10:02 | 429575 | ||
| FMRF1_TS_DEWT_102015.nc | 27-Oct-2024 10:02 | 429572 | ||
| FMRF1_TS_DEWT_102016.nc | 27-Oct-2024 10:02 | 429530 | ||
| FMRF1_TS_DEWT_102017.nc | 27-Oct-2024 10:02 | 418875 | ||
| FMRF1_TS_DEWT_102018.nc | 27-Oct-2024 10:02 | 429572 | ||
| FMRF1_TS_DEWT_102019.nc | 27-Oct-2024 10:02 | 429572 | ||
| FMRF1_TS_DEWT_102021.nc | 27-Oct-2024 10:03 | 429453 | ||
| FMRF1_TS_DEWT_102022.nc | 27-Oct-2024 10:03 | 429572 | ||
| FMRF1_TS_DEWT_102023.nc | 27-Oct-2024 10:03 | 439067 | ||
| FMRF1_TS_DEWT_112005.nc | 27-Oct-2024 10:03 | 451005 | ||
| FMRF1_TS_DEWT_112007.nc | 27-Oct-2024 10:03 | 1108019 | ||
| FMRF1_TS_DEWT_112008.nc | 27-Oct-2024 10:03 | 418871 | ||
| FMRF1_TS_DEWT_112009.nc | 27-Oct-2024 10:03 | 1106810 | ||
| FMRF1_TS_DEWT_112010.nc | 27-Oct-2024 10:03 | 1105102 | ||
| FMRF1_TS_DEWT_112011.nc | 27-Oct-2024 10:03 | 1109610 | ||
| FMRF1_TS_DEWT_112012.nc | 27-Oct-2024 10:03 | 1112677 | ||
| FMRF1_TS_DEWT_112013.nc | 27-Oct-2024 10:03 | 5151436 | ||
| FMRF1_TS_DEWT_112014.nc | 27-Oct-2024 10:03 | 429684 | ||
| FMRF1_TS_DEWT_112015.nc | 27-Oct-2024 10:03 | 429677 | ||
| FMRF1_TS_DEWT_112017.nc | 27-Oct-2024 10:03 | 429682 | ||
| FMRF1_TS_DEWT_112018.nc | 27-Oct-2024 10:03 | 429676 | ||
| FMRF1_TS_DEWT_112019.nc | 27-Oct-2024 10:03 | 429688 | ||
| FMRF1_TS_DEWT_112020.nc | 27-Oct-2024 10:04 | 429694 | ||
| FMRF1_TS_DEWT_112021.nc | 27-Oct-2024 10:04 | 448864 | ||
| FMRF1_TS_DEWT_112022.nc | 27-Oct-2024 10:04 | 422179 | ||
| FMRF1_TS_DEWT_112023.nc | 27-Oct-2024 10:04 | 449488 | ||
| FMRF1_TS_DEWT_122005.nc | 27-Oct-2024 10:04 | 449205 | ||
| FMRF1_TS_DEWT_122007.nc | 27-Oct-2024 10:04 | 429688 | ||
| FMRF1_TS_DEWT_122008.nc | 27-Oct-2024 10:04 | 429672 | ||
| FMRF1_TS_DEWT_122009.nc | 27-Oct-2024 10:04 | 427985 | ||
| FMRF1_TS_DEWT_122010.nc | 27-Oct-2024 10:04 | 429689 | ||
| FMRF1_TS_DEWT_122011.nc | 27-Oct-2024 10:04 | 429700 | ||
| FMRF1_TS_DEWT_122012.nc | 27-Oct-2024 10:04 | 429701 | ||
| FMRF1_TS_DEWT_122013.nc | 27-Oct-2024 10:04 | 429690 | ||
| FMRF1_TS_DEWT_122014.nc | 27-Oct-2024 10:04 | 429695 | ||
| FMRF1_TS_DEWT_122015.nc | 27-Oct-2024 10:05 | 429701 | ||
| FMRF1_TS_DEWT_122016.nc | 27-Oct-2024 10:05 | 429688 | ||
| FMRF1_TS_DEWT_122017.nc | 27-Oct-2024 10:05 | 429917 | ||
| FMRF1_TS_DEWT_122018.nc | 27-Oct-2024 10:05 | 429913 | ||
| FMRF1_TS_DEWT_122019.nc | 27-Oct-2024 10:05 | 429910 | ||
| FMRF1_TS_DEWT_122020.nc | 27-Oct-2024 10:05 | 429917 | ||
| FMRF1_TS_DEWT_122021.nc | 27-Oct-2024 10:05 | 429908 | ||
| FMRF1_TS_DEWT_122022.nc | 27-Oct-2024 10:05 | 429913 | ||
| FMRF1_TS_DEWT_122023.nc | 27-Oct-2024 10:05 | 422130 | ||